Location: Cormont
(50.5693°N, 1.7416°E)
Time: 19:49:39
(UTC+00:00)

ARGOS - Pass Details

Date: 21 October 2019
Orbit: 820 x 835 km, 98.5° (Epoch: 22 November)

Event Time Altitude Azimuth Distance (km) Brightness Sun altitude
Exits shadow 19:05:12 45° 73° (ENE) 1,128 3.4 -22.2°
Maximum altitude 19:05:24 45° 66° (ENE) 1,125 3.4 -22.2°
Drops below altitude 10° 19:10:34 10° 355° (N) 2,460 5.8 -23.0°
Sets 19:13:00 0° 350° (N) 3,398 6.6 -23.4°
